GW4541 Weather Reports


Display with metric or nautical units.
time (UTC)temp
F
wind
direction
speed
MPH
gust
MPH
rain 1hr
in
rain 24hr
in
rain mn
in
humidity
%
barometer
mb
20260902191802 63 248 0.0 3.0 0.00 0.01 0.01 78 1019.5
20260902190801 63 209 0.0 3.0 0.00 0.01 0.01 78 1019.5
20260902185800 63 209 0.0 2.0 0.00 0.01 0.01 80 1019.5
20260902184802 63 218 1.0 1.0 0.00 0.01 0.01 81 1019.3
20260902183801 63 64 0.0 2.0 0.00 0.01 0.01 81 1019.6
20260902182801 64 288 0.0 3.0 0.00 0.01 0.01 80 1019.5
20260902181801 64 13 1.0 3.0 0.00 0.01 0.01 78 1019.4
20260902180801 65 312 0.0 7.0 0.00 0.01 0.01 77 1019.3
20260902175801 66 264 1.0 4.0 0.00 0.01 0.01 71 1019.2
20260902173800 67 231 0.0 4.0 0.00 0.01 0.01 66 1018.8
20260902172801 67 277 1.0 4.0 0.00 0.01 0.01 65 1018.8
20260902171801 67 312 0.0 2.0 0.00 0.01 0.01 65 1018.8
20260902170801 67 186 1.0 6.0 0.00 0.01 0.01 63 1018.8
20260902165801 68 258 0.0 3.0 0.00 0.01 0.01 63 1018.9
20260902163801 69 205 0.0 2.0 0.00 0.01 0.01 61 1018.7
20260902162801 68 184 1.0 4.0 0.00 0.01 0.01 62 1018.8
20260902160801 69 144 2.0 7.0 0.00 0.01 0.01 62 1019.0
20260902155801 69 103 1.0 9.0 0.00 0.01 0.01 62 1018.7
20260902154801 70 31 1.0 6.0 0.00 0.01 0.01 60 1018.7
20260902153801 70 227 4.0 9.0 0.00 0.01 0.01 59 1018.7
20260902152800 70 181 3.0 8.0 0.00 0.01 0.01 59 1018.9
20260902150801 71 268 1.0 4.0 0.00 0.01 0.01 54 1018.8
20260902145800 71 206 0.0 9.0 0.00 0.02 0.01 57 1019.0
20260902144801 72 264 2.0 6.0 0.00 0.16 0.01 53 1018.9
20260902142801 70 226 3.0 9.0 0.00 0.17 0.01 54 1019.1
20260902141801 73 230 0.0 4.0 0.00 0.21 0.01 51 1018.9
20260902140801 71 66 1.0 8.0 0.00 0.24 0.01 54 1018.9
20260902135801 72 248 2.0 6.0 0.00 0.27 0.01 53 1019.2
20260902134801 70 139 0.0 4.0 0.00 0.27 0.01 52 1019.1
20260902133800 72 245 0.0 4.0 0.00 0.27 0.01 54 1019.1
20260902132801 70 182 0.0 7.0 0.00 0.27 0.01 53 1019.2
20260902130806 71 43 0.0 7.0 0.00 0.27 0.01 54 1019.0
20260902125800 72 229 1.0 4.0 0.00 0.27 0.01 51 1019.1
20260902123801 70 150 1.0 6.0 0.00 0.27 0.01 56 1019.1
20260902122801 67 249 1.0 3.0 0.00 0.27 0.01 65 1019.3
20260902121801 67 316 0.0 3.0 0.00 0.27 0.01 68 1019.3
20260902120800 67 35 0.0 2.0 0.00 0.27 0.01 68 1019.2
20260902115801 68 45 0.0 2.0 0.00 0.27 0.01 67 1019.3
20260902114801 70 301 0.0 3.0 0.00 0.27 0.01 62 1019.2
20260902113801 67 212 1.0 3.0 0.00 0.27 0.01 65 1019.4
20260902112801 68 113 0.0 7.0 0.00 0.28 0.01 63 1019.5
20260902111801 68 24 0.0 2.0 0.00 0.28 0.01 66 1019.6
20260902105801 69 34 0.0 3.0 0.00 0.29 0.01 62 1019.4
20260902104801 66 201 0.0 4.0 0.00 0.29 0.01 65 1019.7
20260902103801 67 222 4.0 6.0 0.00 0.29 0.01 65 1019.7
20260902101800 68 254 2.0 7.0 0.00 0.29 0.01 60 1019.8
20260902100801 69 347 0.0 3.0 0.00 0.29 0.01 59 1019.7
20260902095801 67 343 0.0 3.0 0.00 0.29 0.01 64 1019.7
20260902094804 68 11 1.0 4.0 0.00 0.29 0.01 60 1019.7
20260902093801 69 10 0.0 2.0 0.00 0.29 0.01 60 1019.7
20260902092801 66 348 0.0 6.0 0.00 0.29 0.01 67 1019.7
20260902091801 65 163 3.0 6.0 0.00 0.29 0.01 70 1019.6
20260902090801 65 201 2.0 7.0 0.00 0.29 0.01 70 1019.7
20260902084801 63 40 0.0 6.0 0.00 0.29 0.01 80 1019.6
20260902083801 61 234 1.0 6.0 0.00 0.29 0.01 83 1019.6
20260902082801 61 203 1.0 6.0 0.00 0.29 0.01 83 1019.5
20260902081801 60 191 2.0 7.0 0.00 0.29 0.01 84 1019.6
20260902075801 59 261 1.0 4.0 0.00 0.29 0.01 88 1019.5
20260902074801 59 230 2.0 6.0 0.00 0.29 0.01 88 1019.4
20260902073801 58 227 0.0 3.0 0.00 0.29 0.01 96 1019.4
20260902072801 58 26 0.0 0.0 0.00 0.29 0.01 98 1019.2
20260902071801 57 42 0.0 0.0 0.00 0.29 0.01 98 1019.3
20260902070801 57 42 0.0 0.0 0.00 0.29 0.01 98 1019.2
20260902065801 56 24 0.0 0.0 0.00 0.29 0.01 99 1019.3
20260902064801 56 24 0.0 0.0 0.00 0.29 0.01 99 1019.0
20260902063801 56 25 0.0 2.0 0.00 0.29 0.01 99 1019.2
20260902061801 56 269 0.0 1.0 0.00 0.29 0.01 99 1019.3
20260902060801 56 229 1.0 3.0 0.00 0.29 0.01 99 1019.3
20260902054801 55 340 0.0 0.0 0.00 0.29 0.01 99 1019.1
20260902053801 55 340 0.0 0.0 0.00 0.29 0.01 99 1019.1
20260902052801 55 340 0.0 0.0 0.00 0.29 0.01 99 1019.0
20260902051800 55 340 0.0 0.0 0.00 0.29 0.01 99 1018.9
20260902050801 55 340 0.0 0.0 0.00 0.29 0.01 99 1019.1
20260902045801 55 340 0.0 0.0 0.00 0.29 0.01 99 1018.9
20260902043800 55 340 0.0 0.0 0.00 0.29 0.01 99 1019.0
20260902042802 55 301 0.0 0.0 0.00 0.29 0.01 99 1019.2
20260902041801 55 248 0.0 0.0 0.00 0.29 0.01 99 1019.0
20260902040801 55 248 0.0 1.0 0.00 0.29 0.01 99 1019.0
20260902035801 55 239 0.0 3.0 0.00 0.29 0.01 99 1019.1
20260902034802 55 257 0.0 3.0 0.00 0.29 0.01 99 1018.9
20260902033801 55 205 0.0 3.0 0.00 0.29 0.01 99 1019.3
20260902032801 55 247 1.0 4.0 0.00 0.29 0.01 99 1019.2
20260902030800 53 40 0.0 0.0 0.00 0.29 0.01 99 1019.5
20260902025801 53 40 0.0 0.0 0.00 0.29 0.01 99 1019.2
20260902024801 53 40 0.0 1.0 0.00 0.29 0.01 99 1019.3
20260902023801 53 189 0.0 0.0 0.00 0.29 0.01 99 1019.6
20260902022801 53 180 0.0 0.0 0.00 0.29 0.01 99 1019.4
20260902021800 53 179 0.0 0.0 0.00 0.29 0.01 99 1019.5
20260902015801 53 212 0.0 0.0 0.00 0.29 0.01 99 1019.6
20260902014801 53 249 0.0 0.0 0.00 0.29 0.01 99 1019.5
20260902013801 52 236 0.0 0.0 0.00 0.29 0.01 99 1019.6
20260902012801 53 236 0.0 0.0 0.00 0.29 0.01 99 1019.5
20260902011801 53 239 0.0 0.0 0.00 0.29 0.01 99 1019.7
20260902010801 53 240 0.0 0.0 0.00 0.29 0.01 99 1019.5
20260902004801 53 263 0.0 0.0 0.00 0.29 0.01 99 1019.4
20260902003801 53 264 0.0 0.0 0.00 0.29 0.01 99 1019.4
20260902002800 53 265 0.0 0.0 0.00 0.29 0.01 99 1019.7
20260902001801 53 280 0.0 0.0 0.00 0.29 0.01 99 1019.6
20260902000801 53 295 0.0 0.0 0.01 0.29 0.01 99 1019.6
20260901235801 52 233 0.0 0.0 0.01 0.29 0.01 99 1019.5
20260901234801 51 233 0.0 0.0 0.01 0.29 0.01 99 1019.6
20260901232801 51 233 0.0 0.0 0.01 0.30 0.01 99 1020.0
20260901230801 52 233 0.0 0.0 0.00 0.29 0.00 99 1020.3
20260901225801 52 233 0.0 0.0 0.00 0.29 0.00 99 1020.0
20260901224801 52 233 0.0 0.0 0.00 0.29 0.00 99 1020.2
20260901223801 52 233 0.0 0.0 0.00 0.30 0.00 99 1020.2
20260901222802 52 233 0.0 0.0 0.00 0.30 0.00 99 1020.3
20260901220801 52 233 0.0 0.0 0.00 0.30 0.00 99 1020.0
20260901215801 52 233 0.0 0.0 0.00 0.30 0.30 99 1020.0
20260901214801 53 233 0.0 0.0 0.00 0.30 0.30 99 1020.1
20260901213801 53 233 0.0 0.0 0.00 0.30 0.30 99 1020.1
20260901211801 54 233 0.0 0.0 0.00 0.30 0.30 99 1020.1
20260901210801 54 233 0.0 0.0 0.00 0.30 0.30 99 1019.8
20260901205802 54 233 0.0 0.0 0.00 0.30 0.30 99 1019.7
20260901204801 54 233 0.0 0.0 0.00 0.30 0.30 99 1019.8
20260901202800 55 233 0.0 0.0 0.00 0.30 0.30 98 1019.8
20260901201801 56 233 0.0 0.0 0.00 0.30 0.30 98 1019.8
20260901200802 56 238 0.0 1.0 0.00 0.30 0.30 98 1019.9
20260901195802 56 231 0.0 1.0 0.00 0.30 0.30 98 1019.9
20260901193801 57 238 0.0 1.0 0.00 0.30 0.30 98 1020.0
20260901192802 58 46 0.0 2.0 0.00 0.30 0.30 98 1019.8